Theta_e
322 323 328 336 343 342 342 354 360 352 345 349 349 348 350 352 352 357 356 349 350 346 345 344 346 348 341 344 342 340 338 337
321 323 326 333 339 342 343 350 355 360 348 345 349 344 349 348 350 359 358 351 357 356 346 347 353 343 344 342 341 346 343 341
321 323 325 331 335 341 344 347 354 359 363 349 349 347 347 348 349 355 353 350 358 354 355 347 349 346 344 346 344 345 343 342
319 321 322 331 334 340 342 345 358 358 358 365 357 355 351 350 350 354 359 354 359 350 352 347 346 345 344 345 346 344 342 341
318 320 321 325 332 336 347 348 354 361 363 360 358 351 350 349 351 361 359 361 360 357 347 347 348 351 361 353 349 346 341 340
318 319 322 326 327 335 345 343 349 356 358 357 354 351 352 348 351 352 357 360 359 358 348 349 351 351 346 348 345 340 339 340
319 319 320 323 326 329 344 352 347 355 355 354 355 356 349 349 351 350 355 355 355 356 351 350 355 346 345 348 346 345 343 342
317 319 319 320 324 330 334 344 351 354 353 353 349 349 348 346 344 345 349 353 353 355 350 351 349 346 343 345 346 347 344 344
315 317 317 319 324 328 329 332 349 349 350 345 346 343 344 345 346 351 351 352 352 352 348 347 348 346 348 352 348 349 345 349
314 315 317 320 321 326 327 331 333 346 346 346 347 345 342 342 344 343 348 350 351 350 347 344 348 344 353 353 352 345 347 350
313 314 316 318 321 321 323 329 333 337 345 351 353 357 358 349 345 344 346 347 349 348 350 342 344 350 348 353 354 354 344 348
311 313 314 317 319 319 322 325 331 334 342 339 344 346 343 346 350 349 346 352 351 351 347 349 352 352 353 356 356 355 354 345
310 311 313 315 318 320 322 327 327 335 337 339 338 340 343 341 337 345 354 355 348 349 349 354 359 356 359 359 364 361 352 347
311 314 314 315 317 318 320 323 330 330 332 338 342 342 341 339 343 343 343 348 350 356 352 359 361 361 362 362 365 363 357 355
311 313 312 312 314 315 317 319 321 327 331 330 336 339 343 345 341 343 344 342 346 359 356 361 359 366 364 363 364 362 359 353
311 312 313 313 314 315 316 318 319 322 324 328 333 337 329 331 339 338 341 344 349 360 364 360 364 363 363 364 358 356 358 354
311 312 313 313 314 316 317 317 320 322 323 329 333 334 336 334 343 349 338 345 345 353 364 362 363 361 362 363 356 358 357 357
310 312 313 314 315 315 319 322 321 320 325 327 326 330 333 336 341 344 345 349 349 348 354 358 358 360 361 361 358 359 355 352
310 311 313 314 315 316 319 317 319 320 321 325 327 327 327 333 336 341 343 350 352 352 349 352 355 357 358 360 357 353 353 355
311 311 312 312 313 315 315 318 316 318 319 322 324 327 329 333 335 339 343 347 349 349 349 349 350 355 358 356 351 348 351 349
Wind_Speed
12 8 7 7 10 13 17 16 13 16 13 12 9 9 9 10 14 12 12 10 8 8 6 8 8 11 9 11 10 9 12 10
11 8 8 4 8 12 14 17 12 12 11 12 12 11 10 10 13 13 9 8 7 6 7 9 8 8 9 9 8 10 11 12
9 8 3 8 9 14 12 12 12 10 11 9 11 12 11 12 12 13 11 11 7 8 7 8 7 8 9 8 8 6 9 11
8 8 10 6 5 6 12 15 10 12 9 8 8 9 11 11 10 11 14 10 8 9 8 9 9 8 8 8 8 8 9 10
9 8 3 6 7 5 6 10 13 10 10 10 6 8 9 10 9 10 13 12 10 10 9 9 8 8 6 6 6 7 9 9
9 4 4 5 2 6 8 9 12 13 11 8 8 9 9 11 11 10 13 13 13 10 10 8 6 7 7 8 8 8 9 9
9 6 5 2 2 2 5 3 10 11 11 10 10 10 10 10 5 8 12 14 14 11 10 8 8 8 9 5 6 7 8 8
10 6 4 2 3 4 3 6 3 7 7 7 7 10 10 10 8 11 13 11 15 12 10 7 9 7 9 8 9 8 8 8
9 6 3 3 3 4 3 2 5 3 3 8 11 7 10 7 9 9 10 11 15 10 9 8 9 9 11 10 9 10 8 8
12 9 5 4 2 3 1 4 1 4 5 7 7 9 11 9 10 12 15 15 12 11 12 9 10 10 11 12 11 10 8 9
11 9 9 6 4 2 2 1 3 5 6 4 9 6 5 1 10 9 11 14 16 16 16 14 13 12 11 13 12 13 9 9
12 12 10 11 5 1 1 3 4 7 7 8 8 5 2 5 6 10 11 14 15 13 15 14 11 11 15 11 11 11 11 10
9 9 7 8 5 5 3 3 3 8 6 7 5 8 6 9 7 16 15 15 11 12 16 15 11 12 12 11 9 12 10 12
5 7 5 7 5 6 3 4 4 6 7 8 8 9 9 9 13 20 8 7 7 5 22 14 13 14 11 10 11 11 12 10
7 9 9 5 5 4 5 7 4 6 8 10 7 11 10 11 13 12 12 11 10 20 16 13 12 11 11 11 11 11 11 11
6 7 6 7 7 7 9 8 10 8 8 9 8 9 9 10 11 12 11 10 9 11 14 13 13 12 13 11 10 11 11 11
6 5 6 9 8 10 10 13 12 12 11 8 9 10 10 10 11 11 11 13 12 10 11 13 13 13 12 12 10 13 11 11
7 9 11 12 13 13 11 11 14 14 13 11 10 11 11 10 11 13 13 12 12 14 10 12 13 13 14 15 12 11 11 10
14 14 14 15 16 16 14 14 15 13 14 13 12 10 12 12 12 13 13 12 12 13 15 15 14 14 15 14 13 12 13 11
13 11 16 17 16 16 17 17 17 13 14 14 13 12 12 12 12 13 13 12 12 13 13 13 15 15 14 15 15 13 14 14
Wind_Direction
299 311 331 310 229 194 187 163 184 194 196 164 184 191 193 200 209 207 202 203 209 196 199 190 207 197 218 199 207 228 235 242
309 323 333 298 239 226 197 154 186 208 200 179 179 191 187 196 200 201 204 220 210 222 215 205 187 206 210 240 214 219 225 246
276 292 186 283 318 193 212 185 189 213 251 184 192 190 187 201 192 194 212 208 214 203 237 235 212 209 202 220 234 240 225 240
262 256 269 181 277 263 226 194 188 195 234 268 195 188 188 203 206 195 199 211 201 211 216 226 241 231 237 219 213 231 229 244
240 245 271 247 184 266 242 232 185 189 209 238 236 209 218 199 214 196 194 209 215 204 222 216 228 229 240 265 245 239 252 254
221 207 207 249 245 176 262 189 186 190 204 218 241 229 213 219 207 211 200 199 223 203 225 220 218 239 229 225 221 223 241 241
216 198 198 154 270 355 199 269 186 174 189 212 218 232 237 237 246 225 205 203 208 219 215 219 199 230 227 230 221 221 241 244
234 174 160 205 162 63 296 211 259 152 191 206 229 218 228 224 225 211 225 207 213 202 216 206 211 218 226 224 227 220 229 252
232 224 169 212 137 118 98 335 236 181 159 217 225 232 223 226 238 246 236 218 210 199 214 199 224 222 229 218 223 230 232 230
228 233 246 176 226 122 94 98 317 240 189 217 236 225 216 204 227 230 224 215 208 195 208 205 207 230 225 218 213 232 214 232
235 217 217 240 174 150 298 8 197 191 240 229 222 239 247 216 223 234 229 219 213 201 197 205 194 203 229 213 212 219 229 214
219 243 214 235 241 213 158 271 309 266 220 218 235 184 253 234 262 241 237 216 231 213 214 214 211 202 228 214 207 219 224 243
209 227 258 237 235 209 212 211 249 275 280 252 262 259 205 234 242 279 228 199 180 225 241 225 206 218 233 221 202 206 215 236
207 183 186 214 229 229 196 206 235 272 272 249 237 269 253 242 214 220 220 224 150 225 239 212 213 220 221 218 227 210 217 224
219 195 201 206 257 224 267 257 263 244 239 249 239 254 246 246 262 262 218 226 205 202 202 218 209 211 217 221 208 217 212 231
214 253 240 242 239 258 288 287 285 282 279 276 261 244 252 248 240 256 267 252 245 221 189 202 212 209 206 213 214 214 214 217
253 268 264 278 306 303 294 301 295 284 280 269 269 265 259 269 281 280 250 259 271 249 190 199 204 210 208 207 208 203 215 208
289 270 277 276 270 270 261 267 282 281 280 273 264 259 259 258 254 253 261 262 237 261 227 211 204 205 205 203 199 204 202 211
282 294 301 296 288 285 278 258 257 260 265 262 269 266 259 254 254 253 249 249 250 224 223 210 205 206 201 195 205 199 198 210
282 294 305 300 292 284 282 275 266 258 257 265 270 270 259 258 257 262 258 248 239 236 228 215 213 206 197 197 201 207 192 207